CZ-2C R/B, 40287

Orbit data source: Space-Track

CZ-2C R/B, 40287 is space debris in SSO originally from a launch on Mon, 27 Oct 2014 UTC launched from the Jiuquan Satellite Launch Center, China (JSC). Debris objects in space refer to the collection of defunct objects orbiting the Earth. Examples of debris include non-operational satellites, rocket bodies, and fragments generated from explosions, collisions, or faulty payload assembly.

Loading next visibility...
Identifier
40287, 2014-066B
Orbit
SSO
Country
Flag of CNCN / PRC
Related business
Manufacturer
CALT
Mission
Spacecraft
Bus & Motor
CZ-2 STAGE 2, Unknown motor
Mass
~3,800 kg wet, ~3,800 kg dry
Launch date (UTC)
2014-10-27 (12 years ago)
Launch vehicle
Unknown
Launch site
Jiuquan Satellite Launch Center, China (JSC)
Object type
Payload
Rocket body
Debris
Shape & HBR
Cyl, 4.2 m
Radar Cross Section
26.048 m², Large (>1 m²)

Expand to show TLE details & history
Last TLE update: 3 days ago

TLE from 3 days ago
0 CZ-2C R/B
1 40287U 14066B   26171.02344662  .00000387  00000-0  75875-4 0  9996
2 40287  97.7229 191.1407 0006781 286.1431  73.9028 14.67680732622765
Epoch: 2026-06-20T00:33Z
TLE epoch observation values (Epoch: 2026-06-20T00:33:45.787Z)
Latitude
-0.00006°
Longitude
-85.54409°
Altitude
670.17 km
Speed
7.523 km/s
True Right ascension
12h 44m 33s
True Declination
0° 00' 00"
Sunlit
Object was in daylight at epoch
Visualization orbit readout
Latitude
Unknown
Longitude
Unknown
Altitude
Unknown
Speed
Unknown
Apparent Right ascension
Unknown
Apparent Declination
Unknown
Sunlit
N/A
Visualization observer readout
Local Sidereal Time
02:14:42
Azimuth
Unknown
Elevation
Unknown
Doppler factor
Unknown
Orbital elements
Apogee altitude
670.308 km
Perigee altitude
660.755 km
Semi-major axis
7,043.668 km
Eccentricity
0.00068
Inclination
97.7229°
RAAN
191.1407°
Arg. of periapsis
286.1431°
True anomaly
73.97748°
Mean anomaly
73.9028°
Eccentric anomaly
73.94014°
Mean motion
3.67151 °/min
Orbital period
98.05 mins
BSTAR
0.000075875
Loading maneuver chart data...
Computing Atmospheric mass density...
Loading historical data...
Loading historical data...
Loading historical data...
Loading historical data...
Loading historical data...
Loading historical data...
Loading historical data...
Other satellites on launch #66 in the year 2014 (2014-10-27 UTC)

Documentation

Showing up to 5 results
|